Weather History for New Iberia, LA

Change the Weather History Date:

Wednesday, July 3, 2013

  Actual Average Record
Temperature  
Mean Temperature 82 °F 82 °F  
Max Temperature 92 °F 91 °F 101 °F (1980)
Min Temperature 71 °F 73 °F 62 °F (1955)
Degree Days  
Heating Degree Days 0 0  
Month to date heating degree days 0 0  
Since 1 June heating degree days 0 0  
Since 1 July heating degree days 0 0  
Cooling Degree Days 17 17  
Month to date cooling degree days 48 51  
Year to date cooling degree days 1192 1092  
Since 1 June cooling degree days 611 522  
Growing Degree Days 32 (Base 50)    
Moisture  
Dew Point 68 °F    
Average Humidity 66    
Maximum Humidity 84    
Minimum Humidity 47    
Precipitation  
Precipitation 0.00 in 0.22 in 4.87 in (1986)
Month to date precipitation 0.00 0.64  
Year to date precipitation 41.56 29.77  
Sea Level Pressure  
Sea Level Pressure 29.98 in    
Wind  
Wind Speed 7 mph (NE)    
Max Wind Speed 23 mph    
Max Gust Speed 28 mph    
Visibility 10 miles    
Events Thunderstorm    
T = Trace of Precipitation, MM = Missing Value Source: NWS Daily Summary

Daily Weather History Graph

Daily Weather History Graph

Search for Another Location

Airport:

Trip Planner

Search our weather history database for the weather conditions in past years. The results will help you decide how hot, cold, wet, or windy it might be!

Date:

Astronomy

Jul. 03, 2013 Rise Set
Actual Time 6:10 AM CDT 8:12 PM CDT
Civil Twilight 5:43 AM CDT 8:39 PM CDT
Nautical Twilight 5:10 AM CDT 9:13 PM CDT
Astronomical Twilight 4:34 AM CDT 9:48 PM CDT
Moon 2:40 AM CDT (7/3) 4:30 PM CDT (7/3)
Length of Visible Light 14h 56m
Length of Day
14h 01m
Waning Crescent, 18% of the Moon is Illuminated
Jul 3
Waning Crescent
Jul 8
New
Jul 15
First Quarter
Jul 22
Full
Jul 29
Last Quarter

Hourly Weather History & Observations

Time (CDT) Temp. Heat Index Dew Point Humidity Pressure Visibility Wind Dir Wind Speed Gust Speed Precip Events Conditions
12:53 AM 73.9 °F - 66.0 °F 76% 30.00 in 10.0 mi North 5.8 mph - N/A   Clear
1:53 AM 73.0 °F - 66.9 °F 81% 29.99 in 10.0 mi Calm Calm - N/A   Clear
2:53 AM 73.9 °F - 68.0 °F 82% 29.98 in 10.0 mi North 3.5 mph - N/A   Clear
3:53 AM 72.0 °F - 66.9 °F 84% 29.98 in 10.0 mi North 5.8 mph - N/A   Clear
4:53 AM 72.0 °F - 66.9 °F 84% 29.99 in 10.0 mi North 4.6 mph - N/A   Scattered Clouds
5:53 AM 73.9 °F - 68.0 °F 82% 29.99 in 10.0 mi NE 6.9 mph - N/A   Mostly Cloudy
6:53 AM 73.9 °F - 68.0 °F 82% 29.99 in 9.0 mi NNE 6.9 mph - N/A   Clear
7:53 AM 77.0 °F - 66.9 °F 71% 30.01 in 10.0 mi NE 9.2 mph - N/A   Clear
8:53 AM 81.0 °F 83.3 °F 66.9 °F 62% 30.02 in 10.0 mi NE 10.4 mph - N/A   Clear
9:53 AM 82.9 °F 86.5 °F 69.1 °F 63% 30.03 in 10.0 mi NE 8.1 mph - N/A   Scattered Clouds
10:53 AM 86.0 °F 90.7 °F 70.0 °F 59% 30.03 in 10.0 mi NNE 9.2 mph - N/A   Clear
11:53 AM 89.1 °F 92.9 °F 68.0 °F 50% 30.01 in 10.0 mi ENE 10.4 mph - N/A   Clear
12:53 PM 90.0 °F 92.8 °F 66.9 °F 46% 30.00 in 10.0 mi NE 10.4 mph - N/A   Clear
1:53 PM 90.0 °F 92.8 °F 66.9 °F 46% 29.98 in 10.0 mi North 10.4 mph 16.1 mph N/A   Scattered Clouds
2:46 PM 91.4 °F 94.0 °F 66.2 °F 43% 29.97 in 10.0 mi NE 9.2 mph - N/A Thunderstorm Thunderstorm
2:53 PM 91.0 °F 92.6 °F 64.0 °F 41% 29.96 in 10.0 mi NNE 10.4 mph - N/A Thunderstorm Thunderstorm
3:08 PM 89.6 °F 91.1 °F 64.4 °F 43% 29.97 in 10.0 mi ENE 11.5 mph - N/A   Mostly Cloudy
3:35 PM 82.4 °F 83.9 °F 64.4 °F 54% 29.97 in 10.0 mi ESE 13.8 mph 21.9 mph N/A   Mostly Cloudy
3:53 PM 84.9 °F 88.2 °F 68.0 °F 57% 29.96 in 10.0 mi ESE 11.5 mph - N/A   Mostly Cloudy
4:53 PM 84.9 °F 88.8 °F 69.1 °F 59% 29.95 in 10.0 mi ENE 9.2 mph - N/A   Mostly Cloudy
5:53 PM 84.0 °F 88.4 °F 70.0 °F 63% 29.94 in 10.0 mi ENE 8.1 mph - N/A   Mostly Cloudy
6:53 PM 82.0 °F 85.5 °F 69.1 °F 65% 29.94 in 10.0 mi NE 8.1 mph - N/A   Clear
7:53 PM 81.0 °F 84.1 °F 69.1 °F 67% 29.95 in 10.0 mi NE 6.9 mph - N/A   Clear
8:53 PM 78.1 °F - 69.1 °F 74% 29.97 in 10.0 mi East 5.8 mph - N/A   Clear
9:53 PM 77.0 °F - 70.0 °F 79% 29.97 in 10.0 mi NNE 6.9 mph - N/A   Clear
10:53 PM 75.0 °F - 70.0 °F 84% 29.99 in 9.0 mi ESE 3.5 mph - N/A   Clear
11:53 PM 75.0 °F - 70.0 °F 84% 29.98 in 9.0 mi North 4.6 mph - N/A   Clear